• In Hungary
  • List of Countries
  • For 7 days
  • Water Temperature
  • Satellite Maps
  • Weather Map
  • News
  • Weather Widgets
  • user-avatar
    Login

    Hourly Weather Kayrakty

    Today, 14 August, Tuesday

    Time Temperature Precipitation Wind Pressure Humidity
    00:00 +23°C° 0.3 mm 2 mps 744 mmHg 73%
    01:00 +22°C° 0.3 mm 1 mps 744 mmHg 75%
    02:00 +22°C° 0 mm 1 mps 744 mmHg 75%
    03:00 +22°C° 0 mm 1 mps 744 mmHg 75%
    04:00 +21°C° 0 mm 2 mps 744 mmHg 77%
    05:00 +21°C° 0.6 mm 2 mps 744 mmHg 75%
    06:00 +21°C° 0.6 mm 2 mps 744 mmHg 73%
    07:00 +23°C° 0.6 mm 2 mps 744 mmHg 71%
    08:00 +24°C° 0.6 mm 2 mps 744 mmHg 66%
    09:00 +24°C° 0.6 mm 2 mps 744 mmHg 61%
    10:00 +25°C° 0 mm 2 mps 744 mmHg 54%
    11:00 +26°C° 0.3 mm 2 mps 744 mmHg 50%
    12:00 +27°C° 0.3 mm 2 mps 744 mmHg 46%
    13:00 +28°C° 0.3 mm 2 mps 744 mmHg 43%
    14:00 +28°C° 0.1 mm 3 mps 743 mmHg 41%
    15:00 +28°C° 0.1 mm 3 mps 743 mmHg 40%
    16:00 +27°C° 0 mm 3 mps 743 mmHg 41%
    17:00 +27°C° 0 mm 2 mps 743 mmHg 43%
    18:00 +26°C° 0 mm 2 mps 743 mmHg 45%
    19:00 +26°C° 0 mm 1 mps 743 mmHg 47%
    20:00 +25°C° 0 mm 2 mps 743 mmHg 48%
    21:00 +24°C° 0 mm 2 mps 743 mmHg 49%
    22:00 +23°C° 0 mm 2 mps 743 mmHg 50%
    23:00 +21°C° 0.2 mm 2 mps 743 mmHg 56%

    Tomorrow, 15 August, Wednesday

    Time Temperature Precipitation Wind Pressure Humidity
    00:00 +21°C° 0.2 mm 3 mps 743 mmHg 61%
    01:00 +20°C° 0.2 mm 3 mps 744 mmHg 66%
    02:00 +19°C° 0 mm 4 mps 744 mmHg 73%
    03:00 +19°C° 0 mm 4 mps 744 mmHg 80%
    04:00 +17°C° 0 mm 5 mps 744 mmHg 87%
    05:00 +17°C° 0 mm 5 mps 745 mmHg 83%
    06:00 +17°C° 0 mm 5 mps 745 mmHg 79%
    07:00 +17°C° 0 mm 6 mps 745 mmHg 75%
    08:00 +19°C° 0 mm 6 mps 746 mmHg 67%
    09:00 +21°C° 0 mm 6 mps 746 mmHg 58%
    10:00 +22°C° 0 mm 6 mps 746 mmHg 50%
    11:00 +23°C° 0 mm 6 mps 747 mmHg 46%
    12:00 +24°C° 0 mm 6 mps 747 mmHg 42%
    13:00 +26°C° 0 mm 5 mps 747 mmHg 39%
    14:00 +27°C° 0 mm 6 mps 747 mmHg 38%
    15:00 +27°C° 0 mm 6 mps 747 mmHg 37%
    16:00 +27°C° 0 mm 6 mps 747 mmHg 36%
    17:00 +26°C° 0 mm 5 mps 748 mmHg 40%
    18:00 +25°C° 0 mm 4 mps 748 mmHg 43%
    19:00 +23°C° 0 mm 4 mps 748 mmHg 47%
    20:00 +22°C° 0 mm 3 mps 748 mmHg 51%
    21:00 +21°C° 0 mm 3 mps 748 mmHg 55%
    22:00 +19°C° 0 mm 2 mps 749 mmHg 59%
    23:00 +19°C° 0 mm 2 mps 749 mmHg 61%

    Day after tomorrow, 16 August, Thursday

    Time Temperature Precipitation Wind Pressure Humidity
    00:00 +18°C° 0 mm 2 mps 749 mmHg 64%
    01:00 +19°C° 0 mm 1 mps 749 mmHg 66%
    02:00 +18°C° 0 mm 1 mps 749 mmHg 68%
    03:00 +18°C° 0 mm 1 mps 749 mmHg 70%
    04:00 +16°C° 0 mm 1 mps 750 mmHg 72%
    05:00 +18°C° 0 mm 1 mps 750 mmHg 70%
    06:00 +19°C° 0 mm 1 mps 750 mmHg 67%
    07:00 +20°C° 0 mm 1 mps 750 mmHg 65%
    08:00 +21°C° 0 mm 1 mps 750 mmHg 59%
    09:00 +22°C° 0 mm 1 mps 750 mmHg 53%
    10:00 +24°C° 0 mm 1 mps 750 mmHg 47%
    11:00 +25°C° 0 mm 2 mps 750 mmHg 43%
    12:00 +26°C° 0 mm 2 mps 750 mmHg 38%
    13:00 +27°C° 0 mm 2 mps 750 mmHg 34%
    14:00 +27°C° 0 mm 2 mps 750 mmHg 32%
    15:00 +28°C° 0 mm 2 mps 749 mmHg 30%
    16:00 +28°C° 0 mm 2 mps 749 mmHg 28%
    17:00 +27°C° 0 mm 2 mps 749 mmHg 31%
    18:00 +27°C° 0 mm 2 mps 749 mmHg 34%
    19:00 +26°C° 0 mm 1 mps 749 mmHg 37%
    20:00 +25°C° 0 mm 1 mps 749 mmHg 40%
    21:00 +23°C° 0 mm 1 mps 749 mmHg 42%
    22:00 +20°C° 0 mm 0 mps 749 mmHg 44%
    23:00 +22°C° 0 mm 1 mps 749 mmHg 44%

    17 August, Friday

    Time Temperature Precipitation Wind Pressure Humidity
    00:00 +22°C° 0 mm 1 mps 749 mmHg 43%
    01:00 +21°C° 0 mm 2 mps 748 mmHg 43%
    02:00 +20°C° 0 mm 2 mps 748 mmHg 44%
    03:00 +20°C° 0 mm 2 mps 748 mmHg 44%
    04:00 +20°C° 0 mm 2 mps 748 mmHg 44%
    05:00 +21°C° 0 mm 2 mps 748 mmHg 43%
    06:00 +21°C° 0 mm 2 mps 748 mmHg 42%
    07:00 +23°C° 0 mm 2 mps 748 mmHg 41%
    08:00 +25°C° 0 mm 2 mps 748 mmHg 36%
    09:00 +27°C° 0 mm 3 mps 748 mmHg 32%
    10:00 +29°C° 0 mm 3 mps 748 mmHg 27%
    11:00 +30°C° 0 mm 3 mps 748 mmHg 26%
    12:00 +30°C° 0 mm 3 mps 747 mmHg 25%
    13:00 +31°C° 0 mm 3 mps 747 mmHg 24%
    14:00 +31°C° 0 mm 3 mps 747 mmHg 23%
    15:00 +33°C° 0 mm 3 mps 746 mmHg 23%
    16:00 +33°C° 0 mm 3 mps 746 mmHg 22%
    17:00 +31°C° 0 mm 3 mps 745 mmHg 25%
    18:00 +30°C° 0 mm 2 mps 745 mmHg 28%
    19:00 +29°C° 0 mm 2 mps 745 mmHg 30%
    20:00 +27°C° 0 mm 2 mps 745 mmHg 33%
    21:00 +26°C° 0 mm 2 mps 745 mmHg 36%
    22:00 +25°C° 0 mm 2 mps 745 mmHg 38%
    23:00 +24°C° 0 mm 2 mps 744 mmHg 41%

    18 August, Saturday

    Time Temperature Precipitation Wind Pressure Humidity
    00:00 +24°C° 0 mm 2 mps 744 mmHg 44%
    01:00 +23°C° 0 mm 2 mps 744 mmHg 47%
    02:00 +23°C° 0 mm 2 mps 744 mmHg 46%
    03:00 +23°C° 0 mm 2 mps 744 mmHg 46%
    04:00 +22°C° 0 mm 1 mps 743 mmHg 45%
    05:00 +21°C° 0 mm 2 mps 743 mmHg 49%
    06:00 +22°C° 0 mm 3 mps 743 mmHg 53%
    07:00 +22°C° 0 mm 4 mps 743 mmHg 57%
    08:00 +22°C° 0 mm 4 mps 743 mmHg 58%
    09:00 +23°C° 0 mm 5 mps 743 mmHg 59%
    10:00 +23°C° 0 mm 5 mps 744 mmHg 61%
    11:00 +23°C° 0 mm 4 mps 743 mmHg 58%
    12:00 +25°C° 0 mm 4 mps 743 mmHg 55%
    13:00 +25°C° 0 mm 4 mps 743 mmHg 52%
    14:00 +25°C° 0 mm 4 mps 743 mmHg 52%
    15:00 +25°C° 0 mm 3 mps 743 mmHg 53%
    16:00 +25°C° 0 mm 3 mps 743 mmHg 53%
    17:00 +23°C° 0 mm 4 mps 743 mmHg 56%
    18:00 +22°C° 0 mm 4 mps 743 mmHg 58%
    19:00 +22°C° 0 mm 4 mps 743 mmHg 61%
    20:00 +21°C° 0 mm 5 mps 743 mmHg 67%
    21:00 +19°C° 0 mm 5 mps 743 mmHg 73%
    22:00 +17°C° 0 mm 6 mps 744 mmHg 78%
    23:00 +16°C° 0 mm 6 mps 743 mmHg 80%

    19 August, Sunday

    Time Temperature Precipitation Wind Pressure Humidity
    00:00 +15°C° 0 mm 6 mps 743 mmHg 81%
    01:00 +15°C° 0 mm 6 mps 743 mmHg 82%
    02:00 +14°C° 0 mm 6 mps 743 mmHg 82%
    03:00 +14°C° 0 mm 6 mps 744 mmHg 82%
    04:00 +13°C° 0 mm 6 mps 744 mmHg 82%
    05:00 +14°C° 0 mm 6 mps 744 mmHg 79%
    06:00 +14°C° 0 mm 6 mps 744 mmHg 77%
    07:00 +14°C° 0 mm 6 mps 744 mmHg 74%
    08:00 +15°C° 0 mm 7 mps 744 mmHg 70%
    09:00 +16°C° 0 mm 7 mps 744 mmHg 66%
    10:00 +17°C° 0 mm 7 mps 744 mmHg 61%
    11:00 +17°C° 0 mm 7 mps 744 mmHg 59%
    12:00 +17°C° 0 mm 7 mps 744 mmHg 58%
    13:00 +18°C° 0 mm 7 mps 744 mmHg 56%
    14:00 +18°C° 0 mm 7 mps 744 mmHg 54%
    15:00 +20°C° 0 mm 7 mps 744 mmHg 52%
    16:00 +20°C° 0 mm 8 mps 744 mmHg 50%
    17:00 +18°C° 0 mm 7 mps 744 mmHg 52%
    18:00 +19°C° 0 mm 6 mps 744 mmHg 54%
    19:00 +17°C° 0 mm 5 mps 744 mmHg 56%
    20:00 +16°C° 0 mm 5 mps 744 mmHg 60%
    21:00 +16°C° 0 mm 5 mps 744 mmHg 64%
    22:00 +15°C° 0 mm 5 mps 744 mmHg 68%
    23:00 +14°C° 0 mm 5 mps 744 mmHg 70%
    Show more